Preview of NWS' New Version of Forecast
This preview is not operational and should not be used for support decisions.

Regional Weather Roundup (RWR)

Issued by Boston / Norton, MA (BOX)

                            
000
ASUS41 KBOX 170510
RWRBOX

REGIONAL WEATHER ROUNDUP
NATIONAL WEATHER SERVICE BOSTON/NORTON MA
1200 AM EST MON DEC 17 2018

NOTE:  "FAIR" INDICATES FEW OR NO CLOUDS BELOW 12,000 FEET WITH NO 
SIGNIFICANT WEATHER AND/OR OBSTRUCTIONS TO VISIBILITY.

MAZALL-170600-
EASTERN MASSACHUSETTS
  
CITY           SKY/WX    TMP DP  RH WIND       PRES   REMARKS
BOSTON         LGT RAIN  41  38  89 NE22G28   29.75F FOG     WCI  31  
BEVERLY        LGT RAIN  40  35  83 NE16G26   29.75F WCI  31          
LAWRENCE       LGT RAIN  37  33  85 N13       29.79F WCI  29          
BEDFORD        LGT RAIN  37  34  89 N10       29.76F FOG     WCI  30  
BLUE HILL        N/A     37  37 100 NE20G33   29.69F WCI  27          
NORWOOD        LGT RAIN  42  39  89 N13G22    29.74F FOG              
MARSHFIELD     MIX PCPN  43  43 100 NE14G24   29.71F                  
PLYMOUTH       LGT RAIN  42  39  89 NE21G36   29.68F FOG              
TAUNTON        LGT RAIN  42  39  89 NE8G23    29.69F FOG              
NEW BEDFORD    LGT RAIN  42  42 100 NE16G25   29.64F FOG              
$$

MAZALL-170600-
CAPE COD AND THE ISLANDS
  
CITY           SKY/WX    TMP DP  RH WIND       PRES   REMARKS
FALMOUTH       RAIN      41  41 100 NE20G35   29.65F WCI  32          
HYANNIS        RAIN      44  41  89 NE14G22   29.62F FOG              
CHATHAM        LGT RAIN  44 N/A N/A NE15G24   29.63F                  
PROVINCETOWN   LGT RAIN  42  41  96 NE22G32   29.69F FOG              
NANTUCKET      RAIN      46  45  96 NE15      29.58F FOG              
MARTHAS VNYRD  LGT RAIN  42  42 100 NE20G29   29.60F FOG              
$$
 
MAZALL-170600-
CENTRAL AND WESTERN MASSACHUSETTS
  
CITY           SKY/WX    TMP DP  RH WIND       PRES   REMARKS
WORCESTER      MIX PCPN  32  32 100 NE17G25   29.71F FOG     WCI  21  
FITCHBURG      CLOUDY    34  32  92 N10G18    29.78F WCI  26          
ORANGE         LGT RAIN  36  32  85 N9        29.78F WCI  29          
SPRINGFIELD    LGT RAIN  35  32  91 N14       29.75F WCI  25          
WESTFIELD      FLURRIES  35  32  88 N15       29.76F WCI  25          
NORTH ADAMS    LGT RAIN  33  33 100 SW3       29.81F                  
PITTSFIELD     LGT RAIN  34  31  88 NW3       29.76F                  
$$
 
RIZALL-170600-
RHODE ISLAND
  
CITY           SKY/WX    TMP DP  RH WIND       PRES   REMARKS
PROVIDENCE     LGT RAIN  40  39  97 NE18      29.69F FOG     WCI  31  
NEWPORT        LGT RAIN  41  40  96 NE21G29   29.64F FOG     WCI  32  
BLOCK ISLAND   CLOUDY    42  40  92 NE23G37   29.62F                  
SMITHFIELD     LGT RAIN  38  37  97 NE15G25   29.69F FOG     WCI  29  
WESTERLY       LGT RAIN  43  40  89 N15G23    29.65F                  
$$
 
CTZALL-170600-
CONNECTICUT
  
CITY           SKY/WX    TMP DP  RH WIND       PRES   REMARKS
BRADLEY INTL   LGT RAIN  35  33  92 N14G21    29.75F WCI  26          
HARTFORD       LGT RAIN  37  34  89 N13G18    29.75F WCI  29          
BRIDGEPORT     CLOUDY    39  35  86 N12       29.73F WCI  32          
DANBURY        CLOUDY    36  33  89 N7        29.76F FOG     WCI  30  
GROTON         LGT RAIN  41  39  93 N16G22    29.65F                  
NEW HAVEN      CLOUDY    39  36  89 N14G24    29.70F WCI  31          
CHESTER        LGT RAIN  37  36  93 N13       29.68F WCI  29          
MERIDEN        CLOUDY    37  34  89 N16G22    29.73  WCI  28          
WILLIMANTIC    CLOUDY    37  36  96 N10       29.72F WCI  30          
OXFORD         CLOUDY    35  34  96 N15G22    29.72F WCI  25          
$$

MEZ002-015-021-024-NHZ003-005-008-011-012-014-VTZ005-008-170600-
NORTHERN NEW ENGLAND
  
CITY           SKY/WX    TMP DP  RH WIND       PRES   REMARKS
PORTLAND ME    LGT SNOW  33  32  96 VRB6G17   29.85F FOG     WCI  28  
BANGOR ME      CLOUDY    31  26  82 N7        29.92F WCI  24          
CONCORD NH     LGT RAIN  33  32  96 N5        29.83F WCI  29          
MANCHESTER NH  LGTSLEET  36  33  89 N12       29.79F WCI  28          
NASHUA NH      LGT RAIN  34  34 100 N7        29.80F WCI  28          
PORTSMOUTH NH  LGT RAIN  34  32  94 N10       29.79  WCI  26          
JAFFREY NH     FRZ RAIN  33  33 100 VRB6      29.76F WCI  28          
KEENE NH       LGT RAIN  33  32  96 N10       29.81F WCI  25          
BURLINGTON VT  CLOUDY    34  27  75 SW3       29.85F                  
MT. WASHINGTON NOT AVBL                                               
$$

NYZ052-076-170600-
EASTERN NEW YORK
  
CITY           SKY/WX    TMP DP  RH WIND       PRES   REMARKS
ALBANY         LGTSLEET  34  31  88 NW5       29.85F WCI  30          
NEW YORK CITY  CLOUDY    39  34  82 N20       29.77S WCI  29          
$$
 
ANZALL-170600-
MARINE OBSERVATIONS
  
STATION/POSITION TIME  TEMP    WIND        PRES    VSBY  WAVE
                       AIR SEA DIR/SP/G                  HT/PER
                 (UTC) (F)     (DEG/KT/KT) (MB)    (MI)  (FT/S)
BOSTON BUOY      0450   42 45   40/ 27/ 31 1006.0F        10/ 8
BUZZARDS BAY     0400   42      30/ 33/ 36 1003.5F
NANTUCKET SOUND  0450   42 40   30/ 17/ 21 1002.9F         3/ 4
MASS BAY-STELLWA 0404   41 45   50/ 23/ 29 1007.0F   3/4  11/ 8
ISLE OF SHOALS   0400   40      50/ 28/ 31 1008.5F
S OF BLOCK IS    0443      49                N/A          11/ 9
$$

......................KEY.........................
  SKY/WX - SKY CONDITION/PRESENT WEATHER
  TMP    - TEMPERATURE IN FAHRENHEIT
  DWPT   - DEWPOINT IN FAHRENHEIT
  RH     - RELATIVE HUMIDITY IN PERCENT
  WIND   - DIRECTION AND SPEED IN MPH
  PRES   - MEAN SEA LEVEL PRESSURE IN INCHES OF HG
  WCI    - WIND CHILL INDEX
  VSB    - VISIBILITY IN MILES
  HX     - HEAT INDEX
  TC     - TEMPERATURE IN CELSIUS
  VRB    - VARIABLE WIND DIRECTION
  N/A    - NOT AVAILABLE